Weather History for CXRB - June, 2013

Change the Weather History Date:

Wednesday, June 12, 2013

  Actual Average Record
Temperature  
Mean Temperature 27 °F -  
Max Temperature 31 °F - - ()
Min Temperature 23 °F - - ()
Degree Days  
Heating Degree Days 38    
Moisture  
Dew Point 26 °F    
Average Humidity 91    
Maximum Humidity 96    
Minimum Humidity 82    
Precipitation  
Precipitation 0.00 in - - ()
Sea Level Pressure  
Sea Level Pressure 30.23 in    
Wind  
Wind Speed 10 mph ()    
Max Wind Speed 15 mph    
Max Gust Speed -    
T = Trace of Precipitation, MM = Missing Value Source: Averaged Metar Reports

Daily Weather History Graph

Daily Weather History Graph

Search for Another Location

Airport or City:

Trip Planner

Search our weather history database for the weather conditions in past years. The results will help you decide how hot, cold, wet, or windy it might be!

Date:

Astronomy

Dec. 31, 1969 Rise Set
Actual Time Sun does not set Sun does not set
Civil Twilight Sun does not set Sun does not set
Nautical Twilight Sun does not set Sun does not set
Astronomical Twilight Sun does not set Sun does not set
Moon 4:24 AM MDT (6/12) 2:08 AM MDT (6/12)
Length of Visible Light 24h 00m
Length of Day
24h 00m
Waxing Crescent, 14% of the Moon is Illuminated
Jun 12
Waxing Crescent
Jun 16
First Quarter
Jun 23
Full
Jun 29
Last Quarter
Jul 8
New

Hourly Weather History & Observations

Time (MDT) Temp. Windchill Dew Point Humidity Pressure Visibility Wind Dir Wind Speed Gust Speed Precip Events Conditions
12:00 AM 26 °F - 23 °F 82% 30.28 in - NNW 9.2 mph - -  
12:00 AM 25.5 °F 16.2 °F 22.6 °F 89% 30.28 in - NNW 9.2 mph - N/A   Unknown
1:00 AM 25.2 °F 13.9 °F 23.0 °F 91% 30.27 in - NW 12.7 mph - N/A   Unknown
2:00 AM 24.1 °F 13.7 °F 22.5 °F 94% 30.28 in - NW 10.4 mph - N/A   Unknown
3:00 AM 23.0 °F 13.1 °F 21.2 °F 93% 30.27 in - NW 9.2 mph - N/A   Unknown
4:00 AM 23.2 °F 12.6 °F 21.4 °F 93% 30.27 in - NW 10.4 mph - N/A   Unknown
5:00 AM 24.4 °F 14.2 °F 22.8 °F 94% 30.26 in - NNW 10.4 mph - N/A   Unknown
6:00 AM 27 °F - 24 °F 86% 30.26 in - NW 15.0 mph - -  
6:00 AM 26.8 °F 14.9 °F 24.4 °F 91% 30.26 in - NW 15.0 mph - N/A   Unknown
7:00 AM 26.2 °F 14.2 °F 24.1 °F 92% 30.25 in - NNW 15.0 mph - N/A   Unknown
8:00 AM 27.3 °F 18.4 °F 24.4 °F 89% 30.25 in - NNW 9.2 mph - N/A   Unknown
9:00 AM 27.5 °F 17.4 °F 25.0 °F 90% 30.24 in - NNW 11.5 mph - N/A   Unknown
10:00 AM 28.4 °F 17.5 °F 25.7 °F 90% 30.23 in - NW 13.8 mph - N/A   Unknown
11:00 AM 29.3 °F 20.2 °F 26.6 °F 90% 30.22 in - NW 10.4 mph - N/A   Unknown
12:00 PM 29 °F - 26 °F 82% 30.22 in - NW 15.0 mph - -  
12:00 PM 28.6 °F 17.2 °F 25.7 °F 89% 30.22 in - NW 15.0 mph - N/A   Unknown
1:00 PM 30.4 °F 19.5 °F 27.1 °F 88% 30.21 in - NW 15.0 mph - N/A   Unknown
2:00 PM 29.8 °F 19.3 °F 26.6 °F 88% 30.21 in - WNW 13.8 mph - N/A   Unknown
3:00 PM 31.1 °F 20.9 °F 27.1 °F 85% 30.20 in - NW 13.8 mph - N/A   Unknown
4:00 PM 29.8 °F 19.8 °F 27.1 °F 90% 30.20 in - WNW 12.7 mph - N/A   Unknown
5:00 PM 29.8 °F 19.8 °F 27.9 °F 92% 30.20 in - NW 12.7 mph - N/A   Unknown
6:00 PM 31 °F - 29 °F 89% 30.20 in - WNW 9.2 mph - -  
6:00 PM 30.9 °F 22.8 °F 28.9 °F 92% 30.20 in - WNW 9.2 mph - N/A   Unknown
7:00 PM 30.9 °F 22.8 °F 29.8 °F 96% 30.19 in - WNW 9.2 mph - N/A   Unknown
8:00 PM 31.6 °F 23.7 °F 30.4 °F 95% 30.19 in - WNW 9.2 mph - N/A   Unknown
9:00 PM 30.7 °F 22.6 °F 29.3 °F 94% 30.18 in - WNW 9.2 mph - N/A   Unknown
10:00 PM 30.0 °F 23.2 °F 29.1 °F 96% 30.18 in - WNW 6.9 mph - N/A   Unknown
11:00 PM 30.6 °F 24.7 °F 29.7 °F 96% 30.17 in - WNW 5.8 mph - N/A   Unknown